Weather History for Barnwell, SC

Change the Weather History Date:

Friday, January 6, 2012

  Actual Average (KOGB) Record (KOGB)
Temperature  
Mean Temperature 49 °F 45 °F  
Max Temperature 68 °F 56 °F 76 °F (1955)
Min Temperature 30 °F 35 °F 13 °F (1981)
Degree Days  
Heating Degree Days 16 20  
Month to date heating degree days 120  
Since 1 July heating degree days 1024  
Cooling Degree Days 0 0  
Month to date cooling degree days 0  
Year to date cooling degree days 0  
Moisture  
Dew Point 33 °F    
Average Humidity 65    
Maximum Humidity 100    
Minimum Humidity 26    
Precipitation  
Precipitation 0.00 in 0.14 in 0.73 in (1966)
Month to date precipitation 0.75  
Year to date precipitation 0.75  
Sea Level Pressure  
Sea Level Pressure 30.12 in    
Wind  
Wind Speed 2 mph (SW)    
Max Wind Speed 10 mph    
Max Gust Speed 16 mph    
Visibility 10 miles    
Events      
T = Trace of Precipitation, MM = Missing Value Source: NWS Daily Summary

Daily Weather History Graph

Daily Weather History Graph

Search for Another Location

Airport:

Trip Planner

Search our weather history database for the weather conditions in past years. The results will help you decide how hot, cold, wet, or windy it might be!

Date:

Astronomy

Jan. 06, 2012 Rise Set
Actual Time 7:29 AM EST 5:32 PM EST
Civil Twilight 7:02 AM EST 6:00 PM EST
Nautical Twilight 6:31 AM EST 6:30 PM EST
Astronomical Twilight 6:01 AM EST 7:00 PM EST
Moon 3:23 PM EST (1/6) 5:07 AM EST (1/6)
Length of Visible Light 10h 57m
Length of Day
10h 03m
Waxing Gibbous, 93% of the Moon is Illuminated
Jan 6
Waxing Gibbous
Jan 9
Full
Jan 16
Last Quarter
Jan 23
New
Jan 30
First Quarter

Hourly Weather History & Observations

Time (EST) Temp. Windchill Dew Point Humidity Pressure Visibility Wind Dir Wind Speed Gust Speed Precip Events Conditions
12:15 AM 33.8 °F - 32.0 °F 93% 30.14 in 10.0 mi Calm Calm - N/A   Clear
12:35 AM 33.8 °F - 32.0 °F 93% 30.14 in 10.0 mi Calm Calm - N/A   Clear
12:55 AM 32.0 °F - 32.0 °F 100% 30.14 in 10.0 mi Calm Calm - N/A   Clear
1:15 AM 32.0 °F - 30.2 °F 93% 30.14 in 10.0 mi Calm Calm - N/A   Clear
1:35 AM 32.0 °F - 32.0 °F 100% 30.14 in 10.0 mi Calm Calm - N/A   Clear
1:55 AM 32.0 °F - 30.2 °F 93% 30.13 in 10.0 mi Calm Calm - N/A   Clear
2:15 AM 32.0 °F - 32.0 °F 100% 30.14 in 10.0 mi Calm Calm - N/A   Clear
2:35 AM 32.0 °F - 30.2 °F 93% 30.13 in 10.0 mi Calm Calm - N/A   Clear
2:55 AM 32.0 °F - 30.2 °F 93% 30.13 in 10.0 mi Calm Calm - N/A   Clear
3:15 AM 32.0 °F - 30.2 °F 93% 30.13 in 10.0 mi Calm Calm - N/A   Clear
3:35 AM 32.0 °F - 30.2 °F 93% 30.13 in 10.0 mi Calm Calm - N/A   Clear
3:55 AM 32.0 °F - 30.2 °F 93% 30.12 in 10.0 mi Calm Calm - N/A   Clear
4:15 AM 32.0 °F - 30.2 °F 93% 30.12 in 10.0 mi Calm Calm - N/A   Clear
4:35 AM 32.0 °F - 30.2 °F 93% 30.12 in 10.0 mi Calm Calm - N/A   Clear
4:55 AM 32.0 °F - 30.2 °F 93% 30.12 in 10.0 mi Calm Calm - N/A   Clear
5:15 AM 32.0 °F - 30.2 °F 93% 30.12 in 10.0 mi Calm Calm - N/A   Clear
5:35 AM 32.0 °F - 30.2 °F 93% 30.12 in 10.0 mi Calm Calm - N/A   Clear
5:55 AM 32.0 °F - 30.2 °F 93% 30.13 in 10.0 mi Calm Calm - N/A   Clear
6:15 AM 32.0 °F - 30.2 °F 93% 30.13 in 10.0 mi Calm Calm - N/A   Clear
6:35 AM 32.0 °F - 30.2 °F 93% 30.13 in 10.0 mi Calm Calm - N/A   Clear
6:55 AM 32.0 °F - 30.2 °F 93% 30.14 in 10.0 mi Calm Calm - N/A   Clear
7:15 AM 32.0 °F - 30.2 °F 93% 30.14 in 10.0 mi Calm Calm - N/A   Clear
7:35 AM 30.2 °F - 30.2 °F 100% 30.15 in 10.0 mi Calm Calm - N/A   Clear
7:55 AM 32.0 °F - 30.2 °F 93% 30.15 in 10.0 mi Calm Calm - N/A   Clear
8:15 AM 33.8 °F - 32.0 °F 93% 30.15 in 10.0 mi Calm Calm - N/A   Clear
8:35 AM 37.4 °F - 33.8 °F 87% 30.16 in 10.0 mi Calm Calm - N/A   Clear
8:55 AM 41.0 °F - 35.6 °F 81% 30.16 in 10.0 mi Calm Calm - N/A   Clear
9:15 AM 44.6 °F - 35.6 °F 71% 30.17 in 10.0 mi Calm Calm - N/A   Clear
9:35 AM 46.4 °F 43.5 °F 35.6 °F 66% 30.17 in 10.0 mi SW 5.8 mph - N/A   Clear
9:55 AM 50.0 °F - 35.6 °F 58% 30.18 in 10.0 mi WSW 4.6 mph - N/A   Clear
10:15 AM 53.6 °F - 35.6 °F 51% 30.18 in 10.0 mi Calm Calm - N/A   Clear
10:35 AM 55.4 °F - 35.6 °F 47% 30.18 in 10.0 mi WSW 4.6 mph - N/A   Clear
10:55 AM 57.2 °F - 35.6 °F 44% 30.17 in 10.0 mi SW 6.9 mph - N/A   Clear
11:15 AM 60.8 °F - 35.6 °F 39% 30.16 in 10.0 mi WSW 9.2 mph - N/A   Clear
11:35 AM 60.8 °F - 35.6 °F 39% 30.15 in 10.0 mi WSW 8.1 mph - N/A   Clear
11:55 AM 62.6 °F - 35.6 °F 37% 30.13 in 10.0 mi SW 8.1 mph - N/A   Clear
12:15 PM 62.6 °F - 35.6 °F 37% 30.12 in 10.0 mi SW 8.1 mph - N/A   Clear
12:55 PM 64.4 °F - 35.6 °F 34% 30.10 in 10.0 mi SW 9.2 mph - N/A   Clear
1:15 PM 66.2 °F - 33.8 °F 30% 30.09 in 10.0 mi SW 6.9 mph - N/A   Clear
1:35 PM 66.2 °F - 32.0 °F 28% 30.09 in 10.0 mi SW 8.1 mph - N/A   Clear
1:55 PM 66.2 °F - 33.8 °F 30% 30.08 in 10.0 mi WSW 8.1 mph 16.1 mph N/A   Clear
2:15 PM 66.2 °F - 32.0 °F 28% 30.07 in 10.0 mi SW 6.9 mph - N/A   Clear
2:35 PM 68.0 °F - 32.0 °F 26% 30.07 in 10.0 mi SW 9.2 mph 16.1 mph N/A   Clear
2:55 PM 68.0 °F - 32.0 °F 26% 30.07 in 8.0 mi SW 10.4 mph - N/A   Clear
3:15 PM 68.0 °F - 32.0 °F 26% 30.06 in 10.0 mi WSW 6.9 mph - N/A   Clear
3:35 PM 68.0 °F - 32.0 °F 26% 30.07 in 10.0 mi SW 9.2 mph - N/A   Clear
3:55 PM 66.2 °F - 32.0 °F 28% 30.06 in 10.0 mi WSW 9.2 mph - N/A   Clear
4:15 PM 66.2 °F - 32.0 °F 28% 30.07 in 10.0 mi WSW 8.1 mph - N/A   Clear
4:35 PM 64.4 °F - 32.0 °F 30% 30.07 in 10.0 mi SW 8.1 mph - N/A   Clear
4:55 PM 64.4 °F - 32.0 °F 30% 30.07 in 10.0 mi SW 5.8 mph - N/A   Clear
5:15 PM 62.6 °F - 33.8 °F 34% 30.07 in 10.0 mi Calm Calm - N/A   Clear
5:35 PM 59.0 °F - 33.8 °F 39% 30.07 in 10.0 mi Calm Calm - N/A   Clear
6:15 PM 53.6 °F - 33.8 °F 47% 30.08 in 10.0 mi Calm Calm - N/A   Clear
6:35 PM 51.8 °F - 33.8 °F 50% 30.08 in 9.0 mi Calm Calm - N/A   Clear
6:55 PM 48.2 °F - 33.8 °F 58% 30.08 in 10.0 mi Calm Calm - N/A   Clear
7:15 PM 48.2 °F - 33.8 °F 58% 30.09 in 10.0 mi Calm Calm - N/A   Clear
7:35 PM 48.2 °F - 35.6 °F 62% 30.09 in 10.0 mi Calm Calm - N/A   Clear
7:55 PM 46.4 °F - 35.6 °F 66% 30.09 in 10.0 mi Calm Calm - N/A   Clear
8:15 PM 46.4 °F - 33.8 °F 62% 30.09 in 10.0 mi Calm Calm - N/A   Clear
8:35 PM 44.6 °F - 33.8 °F 66% 30.09 in 10.0 mi Calm Calm - N/A   Clear
8:55 PM 44.6 °F - 33.8 °F 66% 30.09 in 10.0 mi Calm Calm - N/A   Clear
9:15 PM 44.6 °F - 33.8 °F 66% 30.09 in 10.0 mi Calm Calm - N/A   Clear
9:35 PM 42.8 °F - 33.8 °F 70% 30.09 in 10.0 mi Calm Calm - N/A   Clear
9:55 PM 42.8 °F - 33.8 °F 70% 30.09 in 10.0 mi Calm Calm - N/A   Clear
10:15 PM 42.8 °F - 33.8 °F 70% 30.09 in 10.0 mi Calm Calm - N/A   Clear
10:35 PM 42.8 °F - 33.8 °F 70% 30.08 in 10.0 mi Calm Calm - N/A   Clear
10:55 PM 42.8 °F - 33.8 °F 70% 30.08 in 10.0 mi Calm Calm - N/A   Clear
11:15 PM 42.8 °F - 35.6 °F 76% 30.07 in 10.0 mi Calm Calm - N/A   Clear
11:35 PM 42.8 °F - 35.6 °F 76% 30.07 in 10.0 mi Calm Calm - N/A   Clear
11:55 PM 44.6 °F - 35.6 °F 71% 30.07 in 10.0 mi Calm Calm - N/A   Clear